Regional Weather Roundup
Issued by NWS Bismarck, ND

Home | Current Version | Previous Version | Text Only | Print | Product List | Glossary On
Versions: 1 2 3 4 5 6 7 8 9 10 11 12 13 14 15 16 17 18 19 20 21 22 23 24 25 26 27 28 29 30 31 32 33 34 35 36 37 38 39 40 41 42 43 44 45 46 47 48 49 50
000
ASUS43 KBIS 141310
RWRBIS

NWR BROADCAST TEXT
NATIONAL WEATHER SERVICE BISMARCK ND
700 AM CST THU DEC 14 2017

NOTE: "FAIR" INDICATES FEW OR NO CLOUDS BELOW 12,000 FEET WITH NO
SIGNIFICANT WEATHER AND/OR OBSTRUCTIONS TO VISIBILITY.


CITY           SKY/WX    TMP DP  RH WIND       PRES   REMARKS
WILLISTON      CLOUDY    33  26  75 N20G30    30.15R
MINOT          CLOUDY    32  26  78 NW16      30.04R
MINOT AFB      CLOUDY    32  27  80 NW12      30.04R
BISMARCK       CLOUDY    34  30  85 NW13G22   30.02R
DICKINSON      CLOUDY    31  27  85 NW21G31   30.06R WCI  18
GARRISON         N/A     32  28  85 NW15      30.03R
HETTINGER ARPT CLOUDY    32  26  78 NW18G28   30.08R
JAMESTOWN      FLURRIES  27  26  96 CALM      29.96S
CARRINGTON     CLOUDY    28  28 100 NW6       29.99R
HAZEN          CLOUDY    32  30  93 NW13G18   30.06R
LINTON           N/A     30  28  93 W6        30.00F
MANDAN         CLOUDY    32  30  93 NW17G24   30.01R
OAKES            N/A     25  27 100 S5        29.98S WCI  19
RUGBY          CLOUDY    28  28 100 NW15      30.00R WCI  17
STANLEY        CLOUDY    30  28  93 N20G30    30.09R WCI  18
TIOGA          CLOUDY    30  28  93 N22G31    30.11R WCI  17
WATFORD CITY   CLOUDY    32  28  86 N20G28    30.12R
$$

CITY           SKY/WX    TMP DP  RH WIND       PRES   REMARKS
GRAND FORKS    CLOUDY    20  18  92 W5        30.01R WCI  13
GRAND FORKS AF CLOUDY    22  18  84 N7        30.01R WCI  14
DEVILS LAKE    FLURRIES  21  19  93 NE9       30.02R WCI  11
FARGO          FLURRIES  20  17  88 W5        30.01S WCI  13
CANDO          FAIR      23  23 100 N8        30.03R FOG     WCI  14
CAVALIER       MIX PCPN  21  18  86 NW10      30.02R WCI  10
GRAFTON        CLOUDY    21  19  93 NW9       30.03R WCI  11
GWINNER          N/A     23  21  93 CALM      29.99S
LANGDON        CLOUDY    21  21 100 NW7       29.99R WCI  13
ROLLA          FAIR      23  23 100 N9        30.00R FOG     WCI  13
WALHALLA       LGT SNOW  21  21 100 NW14      30.02R WCI   8
$$

CITY           SKY/WX    TMP DP  RH WIND       PRES   REMARKS
ABERDEEN       CLOUDY    26  26 100 CALM      30.00R
MOBRIDGE       CLOUDY    33  29  85 NW7       29.98R
BUFFALO          N/A     32  28  85 NW24G36   30.04R WCI  19
RAPID CITY     MOCLDY    35  24  64 NW44G55   30.08R WCI  19
GLASGOW        CLOUDY    33  26  75 NW16      30.25R
SIDNEY         CLOUDY    34  29  82 NW16      30.17R
WOLF POINT     CLOUDY    36  29  75 NW10      30.23R
GLENDIVE       MIX PCPN  31  28  89 NW21G30   30.18R WCI  18
MILES CITY     CLOUDY    34  25  69 NW16G24   30.25R
BAKER          CLOUDY    30  28  92 NW21G29   30.15R WCI  17
$$

CITY           SKY/WX    TMP DP  RH WIND       PRES   REMARKS
BILLINGS       CLEAR     29  22  75 W13       30.31R WCI  19
GREAT FALLS    CLOUDY    25  20  81 S8        30.37F WCI  16
REGINA         FLURRIES  28  25  86 NW9       30.16S WCI  20
ESTEVAN        CLOUDY    28  23  80 NW18G26   30.12R WCI  16
$$





USA.gov is the U.S. government's official web portal to all federal, state and local government web resources and services.